Weather in Chernaya Rechka

Russia / Khabarovsk Krai     48°28′11″N   135°18′42″E
temp.,
°C
wind,
m/s
gust,
m/s
humid.,
%
clouds,
%
prec.,
mm/h
press.,
hPa
HPBL,
m
27 february, sat
sat2701:00−21ssw23900 0.0 103520
04:00−22s23910 0.0 103520
07:00−23s23930 0.0 103627
10:00−19s23912 0.0 1035151
13:00−13ssw238141 0.0 1033413
16:00−10s248071 0.0 1029486
19:00−13se228998 0.0 102620
22:00−11s229099 0.0 102446
28 february, sun
sun2801:00−10ssw1288100 0.0 102144
04:00−8ssw2996100 1.1 1018469
07:00−6sw21296100 1.9 1017691
10:00−5w61093100 2.8 1016580
13:00−7w61090100 0.0 1017403
16:00−6w71184100 0.0 1018851
19:00−10wsw61281100 0.0 1021329
22:00−14w61675100 0.0 1023473
1 march, mon
mon101:00−17w7167634 0.0 1025454
04:00−19wsw8157717 0.0 1028465
07:00−20wsw817760 0.0 1030458
10:00−19w916680 0.0 1031620
13:00−16w913660 0.0 1031984
16:00−14w710670 0.0 10311309
19:00−17sw5108130 0.0 1032251
22:00−21wsw458763 0.0 103275
2 march, tue
tue201:00−23wsw34889 0.0 103244
04:00−24wsw458715 0.0 103370
07:00−25sw48810 0.0 1033106
10:00−20w611750 0.0 1033413
13:00−17w59730 0.0 1031515
16:00−16w47740 0.0 1030473
19:00−20wsw33850 0.0 103026
22:00−22sw23790 0.0 103220
3 march, wed
wed301:00−23ssw22800 0.0 103120
04:00−24sse22810 0.0 103020
07:00−24s338152 0.0 103030
10:00−18sse477872 0.0 1028237
13:00−12s487597 0.0 1024476
16:00−8ssw477099 0.0 1020901
19:00−12wnw118097 0.0 101921
22:00−10ssw239098 0.0 101889